contact:dominique.lefevre@mio.osupytheas.fr, maurice.libes@osupytheas.fr, didier.mallarino@osupytheas.fr
Project:EMSO http://www.emso-fr.org/EMSO-France
Depth: 2436.0 m
Title:EMSO Ligure Ouest : Data MII capteur CSTAR
DateTime,Latitude,Longitude,Instrument_Serial,Reference_Counts,Signal_Counts,Corrected_Signal_raw_counts,Calculated_Beam_c_inverse_meters,Internal_thermistor_counts
DateTime,Latitude,Longitude,Instrument_Serial,Reference_Counts,Signal_Counts,Corrected_Signal_raw_counts,Calculated_Beam_c_inverse_meters,Internal_thermistor_counts
2019-07-30T00:01:46,42.805,6.029,CST-1368DR,8485,11866,15442,0.045,551
2019-07-30T00:04:48,42.805,6.029,CST-1368DR,8485,11867,15443,0.045,551
2019-07-30T00:07:50,42.805,6.029,CST-1368DR,8485,11865,15440,0.045,551
2019-07-30T00:10:51,42.805,6.029,CST-1368DR,8485,11868,15444,0.044,551
2019-07-30T00:13:53,42.805,6.029,CST-1368DR,8485,11867,15443,0.045,551
2019-07-30T00:16:55,42.805,6.029,CST-1368DR,8485,11866,15442,0.045,551
2019-07-30T00:19:56,42.805,6.029,CST-1368DR,8485,11866,15442,0.045,551
2019-07-30T00:22:58,42.805,6.029,CST-1368DR,8485,11864,15439,0.046,551
2019-07-30T00:26:00,42.805,6.029,CST-1368DR,8485,11867,15443,0.045,551
2019-07-30T00:29:01,42.805,6.029,CST-1368DR,8485,11865,15440,0.045,550
2019-07-30T00:32:03,42.805,6.029,CST-1368DR,8485,11862,15436,0.046,551
2019-07-30T00:35:05,42.805,6.029,CST-1368DR,8485,11867,15442,0.045,551
2019-07-30T00:38:06,42.805,6.029,CST-1368DR,8485,11864,15438,0.046,551
2019-07-30T00:41:08,42.805,6.029,CST-1368DR,8485,11866,15442,0.045,551
2019-07-30T00:44:10,42.805,6.029,CST-1368DR,8485,11867,15443,0.045,551
2019-07-30T00:47:11,42.805,6.029,CST-1368DR,8485,11866,15442,0.045,551
2019-07-30T00:50:13,42.805,6.029,CST-1368DR,8485,11867,15442,0.045,551
2019-07-30T00:53:15,42.805,6.029,CST-1368DR,8485,11865,15440,0.045,551
2019-07-30T00:56:16,42.805,6.029,CST-1368DR,8485,11864,15439,0.046,551
2019-07-30T00:59:18,42.805,6.029,CST-1368DR,8485,11867,15443,0.045,551
2019-07-30T01:02:20,42.805,6.029,CST-1368DR,8485,11867,15443,0.045,551
2019-07-30T01:05:21,42.805,6.029,CST-1368DR,8485,11867,15442,0.045,551
2019-07-30T01:08:23,42.805,6.029,CST-1368DR,8484,11865,15442,0.045,551
2019-07-30T01:11:25,42.805,6.029,CST-1368DR,8485,11865,15441,0.045,551
2019-07-30T01:14:26,42.805,6.029,CST-1368DR,8484,11866,15443,0.045,551
2019-07-30T01:17:28,42.805,6.029,CST-1368DR,8484,11866,15443,0.045,550
2019-07-30T01:20:30,42.805,6.029,CST-1368DR,8484,11865,15442,0.045,551
2019-07-30T01:23:31,42.805,6.029,CST-1368DR,8484,11867,15444,0.044,551
2019-07-30T01:26:33,42.805,6.029,CST-1368DR,8484,11867,15444,0.044,551
2019-07-30T01:29:35,42.805,6.029,CST-1368DR,8484,11865,15442,0.045,551
2019-07-30T01:32:36,42.805,6.029,CST-1368DR,8484,11865,15442,0.045,551
2019-07-30T01:35:38,42.805,6.029,CST-1368DR,8484,11866,15443,0.045,551
2019-07-30T01:38:39,42.805,6.029,CST-1368DR,8484,11866,15443,0.045,550
2019-07-30T01:41:41,42.805,6.029,CST-1368DR,8484,11865,15442,0.045,551
2019-07-30T01:44:43,42.805,6.029,CST-1368DR,8484,11862,15438,0.046,551
2019-07-30T01:47:44,42.805,6.029,CST-1368DR,8484,11867,15444,0.044,551
2019-07-30T01:50:46,42.805,6.029,CST-1368DR,8484,11865,15442,0.045,551
2019-07-30T01:53:48,42.805,6.029,CST-1368DR,8484,11863,15440,0.045,551
2019-07-30T01:56:49,42.805,6.029,CST-1368DR,8484,11865,15441,0.045,551
2019-07-30T01:59:51,42.805,6.029,CST-1368DR,8484,11865,15442,0.045,551
2019-07-30T02:02:52,42.805,6.029,CST-1368DR,8484,11865,15442,0.045,551
2019-07-30T02:05:54,42.805,6.029,CST-1368DR,8484,11866,15443,0.045,551
2019-07-30T02:08:56,42.805,6.029,CST-1368DR,8484,11864,15441,0.045,551
2019-07-30T02:11:57,42.805,6.029,CST-1368DR,8484,11866,15444,0.044,551
2019-07-30T02:14:59,42.805,6.029,CST-1368DR,8484,11862,15438,0.046,550
2019-07-30T02:18:01,42.805,6.029,CST-1368DR,8484,11865,15442,0.045,551
2019-07-30T02:21:02,42.805,6.029,CST-1368DR,8484,11866,15443,0.045,551
2019-07-30T02:24:04,42.805,6.029,CST-1368DR,8484,11865,15442,0.045,551
2019-07-30T02:27:06,42.805,6.029,CST-1368DR,8484,11866,15443,0.045,550
2019-07-30T02:30:07,42.805,6.029,CST-1368DR,8484,11862,15438,0.046,551
2019-07-30T02:33:09,42.805,6.029,CST-1368DR,8484,11864,15440,0.045,551
2019-07-30T02:36:10,42.805,6.029,CST-1368DR,8484,11865,15442,0.045,551
2019-07-30T02:39:12,42.805,6.029,CST-1368DR,8484,11865,15442,0.045,551
2019-07-30T02:42:14,42.805,6.029,CST-1368DR,8484,11863,15439,0.046,551
2019-07-30T02:45:15,42.805,6.029,CST-1368DR,8484,11865,15442,0.045,551
2019-07-30T02:48:17,42.805,6.029,CST-1368DR,8484,11866,15443,0.045,551
2019-07-30T02:51:19,42.805,6.029,CST-1368DR,8484,11866,15443,0.045,551
2019-07-30T02:54:20,42.805,6.029,CST-1368DR,8484,11865,15442,0.045,550
2019-07-30T02:57:22,42.805,6.029,CST-1368DR,8484,11864,15441,0.045,551
2019-07-30T03:00:24,42.805,6.029,CST-1368DR,8483,11864,15442,0.045,551
2019-07-30T03:03:25,42.805,6.029,CST-1368DR,8484,11862,15438,0.046,550
2019-07-30T03:06:27,42.805,6.029,CST-1368DR,8484,11864,15441,0.045,551
2019-07-30T03:09:28,42.805,6.029,CST-1368DR,8484,11864,15441,0.045,551
2019-07-30T03:12:30,42.805,6.029,CST-1368DR,8484,11865,15442,0.045,551
2019-07-30T03:15:32,42.805,6.029,CST-1368DR,8484,11865,15442,0.045,551
2019-07-30T03:18:33,42.805,6.029,CST-1368DR,8483,11864,15442,0.045,551
2019-07-30T03:21:35,42.805,6.029,CST-1368DR,8483,11863,15441,0.045,551
2019-07-30T03:24:37,42.805,6.029,CST-1368DR,8483,11864,15443,0.045,551
2019-07-30T03:27:38,42.805,6.029,CST-1368DR,8483,11863,15441,0.045,551
2019-07-30T03:30:40,42.805,6.029,CST-1368DR,8483,11864,15443,0.045,551
2019-07-30T03:33:42,42.805,6.029,CST-1368DR,8483,11863,15441,0.045,551
2019-07-30T03:36:43,42.805,6.029,CST-1368DR,8483,11863,15441,0.045,551
2019-07-30T03:39:45,42.805,6.029,CST-1368DR,8483,11864,15442,0.045,551
2019-07-30T03:42:46,42.805,6.029,CST-1368DR,8483,11863,15441,0.045,551
2019-07-30T03:45:48,42.805,6.029,CST-1368DR,8483,11864,15442,0.045,551
2019-07-30T03:48:50,42.805,6.029,CST-1368DR,8483,11864,15442,0.045,551
2019-07-30T03:51:51,42.805,6.029,CST-1368DR,8483,11862,15440,0.045,551
2019-07-30T03:54:53,42.805,6.029,CST-1368DR,8483,11860,15437,0.046,551
2019-07-30T03:57:55,42.805,6.029,CST-1368DR,8483,11864,15442,0.045,551
2019-07-30T04:00:56,42.805,6.029,CST-1368DR,8483,11864,15442,0.045,551
2019-07-30T04:03:58,42.805,6.029,CST-1368DR,8483,11864,15442,0.045,551
2019-07-30T04:06:59,42.805,6.029,CST-1368DR,8483,11862,15440,0.045,551
2019-07-30T04:10:01,42.805,6.029,CST-1368DR,8483,11863,15441,0.045,551
2019-07-30T04:13:03,42.805,6.029,CST-1368DR,8483,11864,15442,0.045,551
2019-07-30T04:16:04,42.805,6.029,CST-1368DR,8483,11864,15442,0.045,551
2019-07-30T04:19:06,42.805,6.029,CST-1368DR,8483,11864,15442,0.045,551
2019-07-30T04:22:08,42.805,6.029,CST-1368DR,8483,11862,15439,0.046,551
2019-07-30T04:25:09,42.805,6.029,CST-1368DR,8483,11863,15441,0.045,551
2019-07-30T04:28:11,42.805,6.029,CST-1368DR,8483,11864,15442,0.045,551
2019-07-30T04:31:13,42.805,6.029,CST-1368DR,8483,11862,15439,0.046,551
2019-07-30T04:34:14,42.805,6.029,CST-1368DR,8483,11863,15441,0.045,551
2019-07-30T04:37:16,42.805,6.029,CST-1368DR,8483,11863,15441,0.045,551
2019-07-30T04:40:18,42.805,6.029,CST-1368DR,8483,11864,15442,0.045,551
2019-07-30T04:43:19,42.805,6.029,CST-1368DR,8483,11864,15442,0.045,551
2019-07-30T04:46:21,42.805,6.029,CST-1368DR,8483,11863,15441,0.045,550
2019-07-30T04:49:22,42.805,6.029,CST-1368DR,8483,11864,15442,0.045,551
2019-07-30T04:52:24,42.805,6.029,CST-1368DR,8483,11863,15441,0.045,550
2019-07-30T04:55:26,42.805,6.029,CST-1368DR,8483,11863,15441,0.045,551
2019-07-30T04:58:27,42.805,6.029,CST-1368DR,8483,11862,15440,0.045,551
2019-07-30T05:01:29,42.805,6.029,CST-1368DR,8483,11862,15440,0.045,551
2019-07-30T05:04:31,42.805,6.029,CST-1368DR,8483,11862,15440,0.045,551
2019-07-30T05:07:32,42.805,6.029,CST-1368DR,8482,11863,15443,0.045,551
2019-07-30T05:10:34,42.805,6.029,CST-1368DR,8482,11863,15443,0.045,551
2019-07-30T05:13:36,42.805,6.029,CST-1368DR,8482,11861,15440,0.045,551
2019-07-30T05:16:37,42.805,6.029,CST-1368DR,8482,11862,15441,0.045,550
2019-07-30T05:19:39,42.805,6.029,CST-1368DR,8482,11861,15440,0.045,551
2019-07-30T05:22:41,42.805,6.029,CST-1368DR,8482,11862,15442,0.045,551
2019-07-30T05:25:42,42.805,6.029,CST-1368DR,8482,11862,15441,0.045,551
2019-07-30T05:28:44,42.805,6.029,CST-1368DR,8482,11862,15441,0.045,551
2019-07-30T05:31:46,42.805,6.029,CST-1368DR,8482,11861,15440,0.045,551
2019-07-30T05:34:47,42.805,6.029,CST-1368DR,8482,11861,15440,0.045,551
2019-07-30T05:37:49,42.805,6.029,CST-1368DR,8482,11861,15440,0.045,550
2019-07-30T05:40:50,42.805,6.029,CST-1368DR,8482,11862,15441,0.045,551
2019-07-30T05:43:52,42.805,6.029,CST-1368DR,8482,11862,15441,0.045,551
2019-07-30T05:46:54,42.805,6.029,CST-1368DR,8482,11860,15438,0.046,551
2019-07-30T05:49:55,42.805,6.029,CST-1368DR,8482,11861,15440,0.045,551
2019-07-30T05:52:57,42.805,6.029,CST-1368DR,8482,11862,15441,0.045,551
2019-07-30T05:55:59,42.805,6.029,CST-1368DR,8482,11861,15440,0.045,551
2019-07-30T05:59:00,42.805,6.029,CST-1368DR,8482,11861,15440,0.045,550
2019-07-30T06:02:02,42.805,6.029,CST-1368DR,8482,11860,15438,0.046,551
2019-07-30T06:05:04,42.805,6.029,CST-1368DR,8482,11857,15434,0.047,551
2019-07-30T06:08:05,42.805,6.029,CST-1368DR,8482,11860,15439,0.046,551
2019-07-30T06:11:07,42.805,6.029,CST-1368DR,8482,11861,15440,0.045,551
2019-07-30T06:14:09,42.805,6.029,CST-1368DR,8482,11861,15440,0.045,551
2019-07-30T06:17:10,42.805,6.029,CST-1368DR,8482,11861,15440,0.045,551
2019-07-30T06:20:12,42.805,6.029,CST-1368DR,8482,11862,15441,0.045,551
2019-07-30T06:23:14,42.805,6.029,CST-1368DR,8482,11861,15440,0.045,551
2019-07-30T06:26:15,42.805,6.029,CST-1368DR,8482,11862,15441,0.045,551
2019-07-30T06:29:17,42.805,6.029,CST-1368DR,8482,11862,15441,0.045,551
2019-07-30T06:32:18,42.805,6.029,CST-1368DR,8482,11862,15442,0.045,551
2019-07-30T06:35:20,42.805,6.029,CST-1368DR,8482,11862,15441,0.045,551
2019-07-30T06:38:22,42.805,6.029,CST-1368DR,8482,11860,15439,0.046,551
2019-07-30T06:41:23,42.805,6.029,CST-1368DR,8482,11860,15439,0.046,551
2019-07-30T06:44:25,42.805,6.029,CST-1368DR,8482,11862,15441,0.045,551
2019-07-30T06:47:27,42.805,6.029,CST-1368DR,8482,11860,15438,0.046,551
2019-07-30T06:50:28,42.805,6.029,CST-1368DR,8482,11862,15441,0.045,551
2019-07-30T06:53:30,42.805,6.029,CST-1368DR,8482,11859,15437,0.046,551
2019-07-30T06:56:32,42.805,6.029,CST-1368DR,8482,11860,15439,0.046,551
2019-07-30T06:59:33,42.805,6.029,CST-1368DR,8482,11856,15433,0.047,551
2019-07-30T07:02:35,42.805,6.029,CST-1368DR,8482,11862,15441,0.045,551
2019-07-30T07:05:37,42.805,6.029,CST-1368DR,8482,11860,15439,0.046,551
2019-07-30T07:08:38,42.805,6.029,CST-1368DR,8482,11859,15437,0.046,551
2019-07-30T07:11:40,42.805,6.029,CST-1368DR,8481,11860,15440,0.045,551
2019-07-30T07:14:41,42.805,6.029,CST-1368DR,8482,11859,15438,0.046,551
2019-07-30T07:17:43,42.805,6.029,CST-1368DR,8481,11860,15441,0.045,551
2019-07-30T07:20:45,42.805,6.029,CST-1368DR,8481,11860,15441,0.045,550
2019-07-30T07:23:47,42.805,6.029,CST-1368DR,8481,11860,15441,0.045,551
2019-07-30T07:26:48,42.805,6.029,CST-1368DR,8481,11860,15440,0.045,551
2019-07-30T07:29:50,42.805,6.029,CST-1368DR,8481,11860,15440,0.045,551
2019-07-30T07:32:52,42.805,6.029,CST-1368DR,8481,11860,15441,0.045,551
2019-07-30T07:35:54,42.805,6.029,CST-1368DR,8481,11858,15438,0.046,551
2019-07-30T07:38:56,42.805,6.029,CST-1368DR,8481,11860,15441,0.045,551
2019-07-30T07:41:57,42.805,6.029,CST-1368DR,8481,11860,15440,0.045,551
2019-07-30T07:44:59,42.805,6.029,CST-1368DR,8481,11861,15441,0.045,551
2019-07-30T07:48:01,42.805,6.029,CST-1368DR,8481,11861,15441,0.045,550
2019-07-30T07:51:03,42.805,6.029,CST-1368DR,8481,11860,15441,0.045,551
2019-07-30T07:54:04,42.805,6.029,CST-1368DR,8481,11861,15441,0.045,550
2019-07-30T07:57:06,42.805,6.029,CST-1368DR,8481,11860,15440,0.045,551
2019-07-30T08:00:08,42.805,6.029,CST-1368DR,8481,11859,15440,0.045,551
2019-07-30T08:03:10,42.805,6.029,CST-1368DR,8481,11860,15441,0.045,551
2019-07-30T08:06:12,42.805,6.029,CST-1368DR,8481,11861,15442,0.045,551
2019-07-30T08:09:13,42.805,6.029,CST-1368DR,8481,11860,15441,0.045,551
2019-07-30T08:12:15,42.805,6.029,CST-1368DR,8481,11860,15440,0.045,551
2019-07-30T08:15:17,42.805,6.029,CST-1368DR,8481,11861,15441,0.045,551
2019-07-30T08:18:19,42.805,6.029,CST-1368DR,8481,11858,15438,0.046,551
2019-07-30T08:21:21,42.805,6.029,CST-1368DR,8481,11861,15442,0.045,550
2019-07-30T08:24:22,42.805,6.029,CST-1368DR,8481,11860,15441,0.045,551
2019-07-30T08:27:25,42.805,6.029,CST-1368DR,8481,11860,15441,0.045,551
2019-07-30T08:30:27,42.805,6.029,CST-1368DR,8481,11860,15441,0.045,551
2019-07-30T08:33:28,42.805,6.029,CST-1368DR,8481,11860,15440,0.045,551
2019-07-30T08:36:30,42.805,6.029,CST-1368DR,8481,11860,15440,0.045,551
2019-07-30T08:39:32,42.805,6.029,CST-1368DR,8481,11857,15437,0.046,551
2019-07-30T08:42:34,42.805,6.029,CST-1368DR,8481,11860,15440,0.045,551
2019-07-30T08:45:36,42.805,6.029,CST-1368DR,8481,11859,15439,0.046,551
2019-07-30T08:48:37,42.805,6.029,CST-1368DR,8481,11860,15440,0.045,551
2019-07-30T08:51:39,42.805,6.029,CST-1368DR,8481,11859,15439,0.046,551
2019-07-30T08:54:41,42.805,6.029,CST-1368DR,8481,11860,15440,0.045,551
2019-07-30T08:57:43,42.805,6.029,CST-1368DR,8481,11858,15438,0.046,551
2019-07-30T09:00:44,42.805,6.029,CST-1368DR,8481,11858,15437,0.046,551
2019-07-30T09:03:46,42.805,6.029,CST-1368DR,8481,11860,15440,0.045,551
2019-07-30T09:06:48,42.805,6.029,CST-1368DR,8481,11858,15437,0.046,551
2019-07-30T09:09:50,42.805,6.029,CST-1368DR,8480,11858,15439,0.046,551
2019-07-30T09:12:52,42.805,6.029,CST-1368DR,8481,11856,15436,0.046,551
2019-07-30T09:15:53,42.805,6.029,CST-1368DR,8480,11858,15440,0.045,551
2019-07-30T09:18:55,42.805,6.029,CST-1368DR,8480,11860,15442,0.045,551
2019-07-30T09:21:57,42.805,6.029,CST-1368DR,8481,11859,15440,0.045,551
2019-07-30T09:24:59,42.805,6.029,CST-1368DR,8480,11860,15443,0.045,551
2019-07-30T09:28:01,42.805,6.029,CST-1368DR,8480,11860,15442,0.045,551
2019-07-30T09:31:03,42.805,6.029,CST-1368DR,8480,11861,15443,0.045,551
2019-07-30T09:34:04,42.805,6.029,CST-1368DR,8480,11858,15439,0.046,551
2019-07-30T09:37:06,42.805,6.029,CST-1368DR,8480,11858,15440,0.045,551
2019-07-30T09:40:08,42.805,6.029,CST-1368DR,8480,11860,15442,0.045,551
2019-07-30T09:43:10,42.805,6.029,CST-1368DR,8480,11855,15435,0.047,551
2019-07-30T09:46:12,42.805,6.029,CST-1368DR,8480,11860,15442,0.045,551
2019-07-30T09:49:14,42.805,6.029,CST-1368DR,8480,11859,15441,0.045,551
2019-07-30T09:52:15,42.805,6.029,CST-1368DR,8480,11859,15441,0.045,551
2019-07-30T09:55:17,42.805,6.029,CST-1368DR,8480,11858,15440,0.045,551
2019-07-30T09:58:19,42.805,6.029,CST-1368DR,8480,11858,15440,0.045,551
2019-07-30T10:01:21,42.805,6.029,CST-1368DR,8480,11861,15444,0.044,551
2019-07-30T10:04:22,42.805,6.029,CST-1368DR,8480,11860,15443,0.045,550
2019-07-30T10:07:24,42.805,6.029,CST-1368DR,8480,11853,15432,0.047,551
2019-07-30T10:10:26,42.805,6.029,CST-1368DR,8480,11860,15443,0.045,551
2019-07-30T10:13:28,42.805,6.029,CST-1368DR,8480,11858,15440,0.045,551
2019-07-30T10:16:29,42.805,6.029,CST-1368DR,8480,11860,15443,0.045,551
2019-07-30T10:19:31,42.805,6.029,CST-1368DR,8480,11857,15439,0.046,550
2019-07-30T10:22:33,42.805,6.029,CST-1368DR,8480,11860,15442,0.045,550
2019-07-30T10:25:35,42.805,6.029,CST-1368DR,8480,11859,15440,0.045,551
2019-07-30T10:28:37,42.805,6.029,CST-1368DR,8480,11860,15443,0.045,551
2019-07-30T10:31:38,42.805,6.029,CST-1368DR,8480,11861,15444,0.044,551
2019-07-30T10:34:40,42.805,6.029,CST-1368DR,8480,11860,15442,0.045,551
2019-07-30T10:37:42,42.805,6.029,CST-1368DR,8480,11858,15439,0.046,551
2019-07-30T10:40:44,42.805,6.029,CST-1368DR,8480,11861,15444,0.044,551
2019-07-30T10:43:45,42.805,6.029,CST-1368DR,8480,11860,15442,0.045,551
2019-07-30T10:46:47,42.805,6.029,CST-1368DR,8480,11860,15442,0.045,551
2019-07-30T10:49:49,42.805,6.029,CST-1368DR,8480,11858,15440,0.045,551
2019-07-30T10:52:51,42.805,6.029,CST-1368DR,8480,11854,15434,0.047,551
2019-07-30T10:55:52,42.805,6.029,CST-1368DR,8480,11860,15443,0.045,551
2019-07-30T10:58:54,42.805,6.029,CST-1368DR,8480,11858,15439,0.046,551
2019-07-30T11:01:56,42.805,6.029,CST-1368DR,8480,11858,15439,0.046,551
2019-07-30T11:04:58,42.805,6.029,CST-1368DR,8480,11859,15441,0.045,551
2019-07-30T11:07:59,42.805,6.029,CST-1368DR,8480,11860,15442,0.045,551
2019-07-30T11:11:01,42.805,6.029,CST-1368DR,8480,11858,15439,0.046,551
2019-07-30T11:14:03,42.805,6.029,CST-1368DR,8480,11860,15442,0.045,551
2019-07-30T11:17:05,42.805,6.029,CST-1368DR,8480,11860,15442,0.045,551
2019-07-30T11:20:07,42.805,6.029,CST-1368DR,8479,11860,15443,0.045,551
2019-07-30T11:23:09,42.805,6.029,CST-1368DR,8480,11845,15423,0.050,551
2019-07-30T11:26:10,42.805,6.029,CST-1368DR,8479,11860,15444,0.044,551
2019-07-30T11:29:12,42.805,6.029,CST-1368DR,8479,11857,15440,0.045,551
2019-07-30T11:32:14,42.805,6.029,CST-1368DR,8480,11860,15443,0.045,551
2019-07-30T11:35:16,42.805,6.029,CST-1368DR,8479,11859,15443,0.045,551
2019-07-30T11:38:18,42.805,6.029,CST-1368DR,8479,11859,15443,0.045,551
2019-07-30T11:41:19,42.805,6.029,CST-1368DR,8480,11860,15442,0.045,551
2019-07-30T11:44:21,42.805,6.029,CST-1368DR,8479,11861,15445,0.044,551
2019-07-30T11:47:23,42.805,6.029,CST-1368DR,8480,11860,15442,0.045,551
2019-07-30T11:50:25,42.805,6.029,CST-1368DR,8479,11861,15445,0.044,551
2019-07-30T11:53:27,42.805,6.029,CST-1368DR,8479,11855,15437,0.046,551
2019-07-30T11:56:29,42.805,6.029,CST-1368DR,8479,11858,15441,0.045,551
2019-07-30T11:59:30,42.805,6.029,CST-1368DR,8479,11861,15445,0.044,551
2019-07-30T12:02:32,42.805,6.029,CST-1368DR,8479,11861,15445,0.044,551
2019-07-30T12:05:34,42.805,6.029,CST-1368DR,8479,11861,15445,0.044,551
2019-07-30T12:08:36,42.805,6.029,CST-1368DR,8479,11860,15444,0.044,551
2019-07-30T12:11:38,42.805,6.029,CST-1368DR,8479,11858,15441,0.045,550
2019-07-30T12:14:39,42.805,6.029,CST-1368DR,8479,11860,15444,0.044,551
2019-07-30T12:17:41,42.805,6.029,CST-1368DR,8479,11856,15439,0.046,551
2019-07-30T12:20:43,42.805,6.029,CST-1368DR,8479,11860,15444,0.044,551
2019-07-30T12:23:45,42.805,6.029,CST-1368DR,8479,11860,15444,0.044,551
2019-07-30T12:26:47,42.805,6.029,CST-1368DR,8479,11852,15433,0.047,551
2019-07-30T12:29:49,42.805,6.029,CST-1368DR,8479,11860,15444,0.044,551
2019-07-30T12:32:50,42.805,6.029,CST-1368DR,8479,11858,15441,0.045,551
2019-07-30T12:35:52,42.805,6.029,CST-1368DR,8479,11860,15444,0.044,551
2019-07-30T12:38:54,42.805,6.029,CST-1368DR,8479,11859,15443,0.045,551
2019-07-30T12:41:56,42.805,6.029,CST-1368DR,8479,11859,15443,0.045,550
2019-07-30T12:44:58,42.805,6.029,CST-1368DR,8479,11858,15442,0.045,550
2019-07-30T12:47:59,42.805,6.029,CST-1368DR,8479,11859,15443,0.045,551
2019-07-30T12:51:01,42.805,6.029,CST-1368DR,8479,11861,15445,0.044,551
2019-07-30T12:54:03,42.805,6.029,CST-1368DR,8479,11860,15443,0.045,551
2019-07-30T12:57:05,42.805,6.029,CST-1368DR,8479,11859,15442,0.045,551
2019-07-30T13:00:07,42.805,6.029,CST-1368DR,8479,11860,15443,0.045,550
2019-07-30T13:03:09,42.805,6.029,CST-1368DR,8479,11857,15439,0.046,551
2019-07-30T13:06:11,42.805,6.029,CST-1368DR,8479,11860,15444,0.044,551
2019-07-30T13:09:12,42.805,6.029,CST-1368DR,8477,11642,15164,0.117,551
2019-07-30T13:12:14,42.805,6.029,CST-1368DR,8479,11858,15442,0.045,550
2019-07-30T13:15:16,42.805,6.029,CST-1368DR,8479,11859,15442,0.045,551
2019-07-30T13:18:17,42.805,6.029,CST-1368DR,8479,11857,15440,0.045,551
2019-07-30T13:21:19,42.805,6.029,CST-1368DR,8479,11859,15443,0.045,551
2019-07-30T13:24:21,42.805,6.029,CST-1368DR,8479,11859,15442,0.045,551
2019-07-30T13:27:22,42.805,6.029,CST-1368DR,8479,11858,15441,0.045,551
2019-07-30T13:30:24,42.805,6.029,CST-1368DR,8479,11859,15443,0.045,551
2019-07-30T13:33:26,42.805,6.029,CST-1368DR,8479,11860,15443,0.045,551
2019-07-30T13:36:27,42.805,6.029,CST-1368DR,8479,11857,15440,0.045,551
2019-07-30T13:39:29,42.805,6.029,CST-1368DR,8479,11857,15440,0.045,551
2019-07-30T13:42:31,42.805,6.029,CST-1368DR,8478,11858,15442,0.045,551
2019-07-30T13:45:32,42.805,6.029,CST-1368DR,8478,11857,15442,0.045,551
2019-07-30T13:48:34,42.805,6.029,CST-1368DR,8478,11857,15442,0.045,551
2019-07-30T13:51:36,42.805,6.029,CST-1368DR,8478,11859,15445,0.044,551
2019-07-30T13:54:37,42.805,6.029,CST-1368DR,8478,11804,15373,0.063,551
2019-07-30T13:57:39,42.805,6.029,CST-1368DR,8478,11857,15442,0.045,551
2019-07-30T14:00:41,42.805,6.029,CST-1368DR,8479,11859,15443,0.045,551
2019-07-30T14:03:42,42.805,6.029,CST-1368DR,8478,11857,15442,0.045,551
2019-07-30T14:06:44,42.805,6.029,CST-1368DR,8478,11859,15444,0.044,551
2019-07-30T14:09:46,42.805,6.029,CST-1368DR,8478,11857,15441,0.045,550
2019-07-30T14:12:47,42.805,6.029,CST-1368DR,8478,11857,15442,0.045,551
2019-07-30T14:15:49,42.805,6.029,CST-1368DR,8478,11860,15445,0.044,551
2019-07-30T14:18:51,42.805,6.029,CST-1368DR,8478,11855,15439,0.046,551
2019-07-30T14:21:52,42.805,6.029,CST-1368DR,8478,11857,15441,0.045,551
2019-07-30T14:24:54,42.805,6.029,CST-1368DR,8478,11860,15445,0.044,551
2019-07-30T14:27:56,42.805,6.029,CST-1368DR,8478,11840,15420,0.051,551
2019-07-30T14:30:57,42.805,6.029,CST-1368DR,8478,11858,15442,0.045,551
2019-07-30T14:33:59,42.805,6.029,CST-1368DR,8478,11859,15444,0.044,551
2019-07-30T14:37:01,42.805,6.029,CST-1368DR,8478,11858,15443,0.045,551
2019-07-30T14:40:02,42.805,6.029,CST-1368DR,8478,11859,15444,0.044,551
2019-07-30T14:43:04,42.805,6.029,CST-1368DR,8478,11857,15442,0.045,551
2019-07-30T14:46:05,42.805,6.029,CST-1368DR,8478,11859,15445,0.044,551
2019-07-30T14:49:07,42.805,6.029,CST-1368DR,8478,11858,15443,0.045,551
2019-07-30T14:52:09,42.805,6.029,CST-1368DR,8478,11858,15443,0.045,551
2019-07-30T14:55:10,42.805,6.029,CST-1368DR,8478,11858,15443,0.045,551
2019-07-30T14:58:12,42.805,6.029,CST-1368DR,8478,11858,15443,0.045,551
2019-07-30T15:01:14,42.805,6.029,CST-1368DR,8478,11859,15444,0.044,551
2019-07-30T15:04:15,42.805,6.029,CST-1368DR,8478,11857,15442,0.045,551
2019-07-30T15:07:17,42.805,6.029,CST-1368DR,8478,11856,15440,0.045,551
2019-07-30T15:10:19,42.805,6.029,CST-1368DR,8478,11858,15443,0.045,551
2019-07-30T15:13:20,42.805,6.029,CST-1368DR,8478,11857,15442,0.045,551
2019-07-30T15:16:22,42.805,6.029,CST-1368DR,8478,11857,15441,0.045,551
2019-07-30T15:19:23,42.805,6.029,CST-1368DR,8478,11858,15442,0.045,550
2019-07-30T15:22:25,42.805,6.029,CST-1368DR,8478,11857,15441,0.045,551
2019-07-30T15:25:27,42.805,6.029,CST-1368DR,8477,11856,15442,0.045,550
2019-07-30T15:28:28,42.805,6.029,CST-1368DR,8477,11858,15445,0.044,551
2019-07-30T15:31:30,42.805,6.029,CST-1368DR,8478,11854,15438,0.046,551
2019-07-30T15:34:32,42.805,6.029,CST-1368DR,8477,11856,15441,0.045,551
2019-07-30T15:37:33,42.805,6.029,CST-1368DR,8477,11858,15444,0.044,551
2019-07-30T15:40:35,42.805,6.029,CST-1368DR,8477,11857,15444,0.044,551
2019-07-30T15:43:37,42.805,6.029,CST-1368DR,8477,11857,15444,0.044,551
2019-07-30T15:46:38,42.805,6.029,CST-1368DR,8477,11857,15443,0.045,551
2019-07-30T15:49:40,42.805,6.029,CST-1368DR,8477,11852,15437,0.046,551
2019-07-30T15:52:41,42.805,6.029,CST-1368DR,8478,11858,15443,0.045,551
2019-07-30T15:55:43,42.805,6.029,CST-1368DR,8477,11857,15443,0.045,551
2019-07-30T15:58:45,42.805,6.029,CST-1368DR,8477,11856,15442,0.045,551
2019-07-30T16:01:46,42.805,6.029,CST-1368DR,8477,11856,15441,0.045,550
2019-07-30T16:04:48,42.805,6.029,CST-1368DR,8477,11856,15441,0.045,551
2019-07-30T16:07:50,42.805,6.029,CST-1368DR,8477,11858,15445,0.044,551
2019-07-30T16:10:51,42.805,6.029,CST-1368DR,8477,11845,15427,0.049,551
2019-07-30T16:13:53,42.805,6.029,CST-1368DR,8477,11858,15444,0.044,551
2019-07-30T16:16:55,42.805,6.029,CST-1368DR,8477,11857,15443,0.045,551
2019-07-30T16:19:56,42.805,6.029,CST-1368DR,8477,11859,15446,0.044,551
2019-07-30T16:22:58,42.805,6.029,CST-1368DR,8477,11858,15444,0.044,551
2019-07-30T16:26:00,42.805,6.029,CST-1368DR,8477,11858,15444,0.044,551
2019-07-30T16:29:01,42.805,6.029,CST-1368DR,8477,11853,15438,0.046,551
2019-07-30T16:32:03,42.805,6.029,CST-1368DR,8477,11856,15442,0.045,551
2019-07-30T16:35:05,42.805,6.029,CST-1368DR,8477,11856,15442,0.045,551
2019-07-30T16:38:06,42.805,6.029,CST-1368DR,8477,11857,15443,0.045,551